TimeCST,TemperatureF,Dew PointF,Humidity,Sea Level PressureIn,VisibilityMPH,Wind Direction,Wind SpeedMPH,Gust SpeedMPH,PrecipitationIn,Events,Conditions,WindDirDegrees,DateUTC
12:15 AM,33.4,32.0,94,29.56,10.0,NNE,10.4,-,N/A,,Overcast,30,2013-02-27 06:15:00
12:35 AM,33.8,32.0,93,29.56,7.0,ENE,10.4,-,N/A,,Overcast,70,2013-02-27 06:35:00
12:55 AM,33.4,32.0,94,29.56,10.0,West,10.4,-,N/A,,Overcast,280,2013-02-27 06:55:00
1:15 AM,33.1,31.8,95,29.56,7.0,West,12.7,-,N/A,,Overcast,280,2013-02-27 07:15:00
1:35 AM,33.1,31.8,95,29.56,7.0,West,12.7,-,N/A,,Overcast,280,2013-02-27 07:35:00
1:55 AM,33.1,31.8,95,29.56,7.0,West,16.1,-,N/A,,Overcast,280,2013-02-27 07:55:00
2:15 AM,33.1,32.0,96,29.56,7.0,West,13.8,-,N/A,,Overcast,280,2013-02-27 08:15:00
2:35 AM,33.8,32.0,93,29.55,7.0,WNW,13.8,-,N/A,,Overcast,290,2013-02-27 08:35:00
2:55 AM,32.5,31.1,94,29.56,10.0,West,15.0,-,N/A,,Overcast,280,2013-02-27 08:55:00
3:15 AM,32.5,30.9,94,29.56,10.0,West,13.8,-,N/A,,Overcast,280,2013-02-27 09:15:00
3:35 AM,32.4,30.6,93,29.56,10.0,WNW,12.7,-,N/A,,Overcast,290,2013-02-27 09:35:00
3:55 AM,32.0,30.2,93,29.56,10.0,WNW,12.7,-,N/A,,Overcast,290,2013-02-27 09:55:00
4:15 AM,32.0,30.2,93,29.57,10.0,WNW,12.7,18.4,N/A,,Overcast,290,2013-02-27 10:15:00
4:35 AM,32.0,30.0,92,29.58,10.0,WNW,11.5,-,N/A,,Overcast,300,2013-02-27 10:35:00
4:55 AM,32.0,30.0,92,29.59,10.0,WNW,10.4,-,N/A,,Overcast,300,2013-02-27 10:55:00
5:15 AM,31.8,29.8,92,29.59,7.0,NW,11.5,-,N/A,,Overcast,310,2013-02-27 11:15:00
5:35 AM,31.6,29.8,93,29.59,5.0,WNW,11.5,-,N/A,Rain,Freezing Rain,300,2013-02-27 11:35:00
5:55 AM,32.0,30.0,92,29.59,5.0,WNW,16.1,-,N/A,,Light Drizzle,290,2013-02-27 11:55:00
6:15 AM,31.6,29.8,93,29.59,5.0,WNW,13.8,-,N/A,,Overcast,290,2013-02-27 12:15:00
6:35 AM,31.3,29.5,93,29.59,7.0,WNW,13.8,-,N/A,,Overcast,290,2013-02-27 12:35:00
6:55 AM,31.1,29.7,94,29.60,5.0,WNW,15.0,-,N/A,,Overcast,290,2013-02-27 12:55:00
7:15 AM,31.6,30.0,94,29.60,7.0,WNW,13.8,-,N/A,,Overcast,290,2013-02-27 13:15:00
7:35 AM,31.1,28.9,92,29.60,10.0,WNW,16.1,-,N/A,,Overcast,290,2013-02-27 13:35:00
7:55 AM,31.1,28.9,92,29.61,10.0,WNW,13.8,-,N/A,,Overcast,290,2013-02-27 13:55:00
8:15 AM,31.1,28.9,92,29.62,10.0,WNW,12.7,-,N/A,,Overcast,300,2013-02-27 14:15:00
8:35 AM,31.1,28.9,92,29.62,7.0,WNW,11.5,-,N/A,,Overcast,300,2013-02-27 14:35:00
8:55 AM,31.5,28.9,90,29.63,5.0,WNW,11.5,-,N/A,Snow,Light Snow,290,2013-02-27 14:55:00
9:15 AM,31.5,28.8,90,29.63,7.0,WNW,12.7,-,N/A,,Overcast,290,2013-02-27 15:15:00
9:35 AM,31.3,28.6,90,29.63,7.0,WNW,10.4,-,N/A,,Overcast,300,2013-02-27 15:35:00
9:55 AM,31.5,28.8,90,29.63,10.0,WNW,12.7,-,N/A,,Overcast,300,2013-02-27 15:55:00
10:15 AM,31.6,28.9,90,29.63,10.0,WNW,12.7,-,N/A,,Overcast,300,2013-02-27 16:15:00
10:35 AM,32.0,28.4,87,29.63,3.0,WNW,10.4,-,N/A,Snow,Light Snow,300,2013-02-27 16:35:00
10:55 AM,31.6,29.5,92,29.63,1.2,NW,10.4,-,N/A,Snow,Light Snow,310,2013-02-27 16:55:00
11:15 AM,32.0,30.0,92,29.63,1.0,NW,12.7,-,N/A,Snow,Light Snow,310,2013-02-27 17:15:00
11:35 AM,32.0,30.2,93,29.63,1.2,NW,12.7,-,N/A,Snow,Light Snow,310,2013-02-27 17:35:00
11:55 AM,32.0,30.0,92,29.63,1.2,NW,12.7,-,N/A,Snow,Light Snow,310,2013-02-27 17:55:00
12:15 PM,32.2,30.2,92,29.63,1.8,NW,11.5,-,N/A,Snow,Light Snow,310,2013-02-27 18:15:00
12:35 PM,32.5,30.6,92,29.63,1.5,WNW,11.5,-,N/A,Snow,Light Snow,300,2013-02-27 18:35:00
12:55 PM,32.9,30.9,92,29.63,2.5,NW,12.7,-,N/A,Snow,Light Snow,310,2013-02-27 18:55:00
1:15 PM,32.9,30.6,91,29.63,2.0,NW,12.7,-,N/A,Snow,Light Snow,310,2013-02-27 19:15:00
1:35 PM,32.9,30.2,90,29.63,3.0,NW,12.7,-,N/A,Snow,Light Snow,310,2013-02-27 19:35:00
1:55 PM,32.9,30.6,91,29.64,7.0,WNW,10.4,-,N/A,,Overcast,300,2013-02-27 19:55:00
2:15 PM,32.9,30.4,90,29.64,7.0,NW,12.7,-,N/A,,Overcast,310,2013-02-27 20:15:00
2:35 PM,32.9,30.2,90,29.65,10.0,NW,11.5,-,N/A,,Overcast,310,2013-02-27 20:35:00
2:55 PM,32.9,30.2,90,29.65,7.0,NW,15.0,-,N/A,,Overcast,310,2013-02-27 20:55:00
3:15 PM,32.7,30.4,91,29.66,4.0,NW,13.8,-,N/A,,Overcast,310,2013-02-27 21:15:00
3:35 PM,32.5,30.6,92,29.66,2.5,WNW,12.7,-,N/A,Snow,Light Snow,300,2013-02-27 21:35:00
3:55 PM,32.5,30.7,93,29.67,1.8,WNW,13.8,-,N/A,Snow,Light Snow,300,2013-02-27 21:55:00
4:15 PM,32.9,31.1,93,29.67,2.0,WNW,13.8,-,N/A,Snow,Light Snow,300,2013-02-27 22:15:00
4:35 PM,32.5,30.9,94,29.68,2.0,WNW,13.8,-,N/A,Snow,Light Snow,300,2013-02-27 22:35:00
4:55 PM,32.5,31.1,94,29.68,1.2,WNW,12.7,-,N/A,Snow,Light Snow,300,2013-02-27 22:55:00
5:15 PM,32.4,31.1,95,29.70,1.5,WNW,13.8,-,N/A,Snow,Light Snow,300,2013-02-27 23:15:00
5:35 PM,32.4,31.1,95,29.70,1.5,NW,16.1,-,N/A,Snow,Light Snow,310,2013-02-27 23:35:00
5:55 PM,32.5,31.1,94,29.71,2.0,NW,13.8,-,N/A,Snow,Light Snow,310,2013-02-27 23:55:00
6:15 PM,32.5,31.1,94,29.71,3.0,NW,13.8,-,N/A,Snow,Light Snow,310,2013-02-28 00:15:00
6:35 PM,32.5,31.3,95,29.72,4.0,NW,15.0,-,N/A,Snow,Light Snow,310,2013-02-28 00:35:00
7:15 PM,32.5,31.1,94,29.72,7.0,NW,15.0,-,N/A,Snow,Light Snow,310,2013-02-28 01:15:00
7:35 PM,32.0,32.0,100,29.73,7.0,NW,15.0,-,N/A,,Overcast,310,2013-02-28 01:35:00
7:55 PM,32.7,31.1,94,29.73,5.0,NW,15.0,-,N/A,Snow,Light Snow,310,2013-02-28 01:55:00
8:15 PM,32.5,31.1,94,29.74,3.0,NW,15.0,-,N/A,Snow,Light Snow,310,2013-02-28 02:15:00
8:35 PM,32.0,32.0,100,29.74,2.5,NW,12.7,-,N/A,Snow,Light Snow,310,2013-02-28 02:35:00
8:55 PM,32.5,31.1,94,29.75,5.0,WNW,15.0,-,N/A,Snow,Light Snow,300,2013-02-28 02:55:00
9:15 PM,32.5,31.1,94,29.75,7.0,NW,15.0,-,N/A,Snow,Light Snow,310,2013-02-28 03:15:00
9:35 PM,32.5,31.1,94,29.75,7.0,NW,15.0,-,N/A,Snow,Light Snow,310,2013-02-28 03:35:00
9:55 PM,32.5,31.1,94,29.75,7.0,NW,15.0,-,N/A,Snow,Light Snow,310,2013-02-28 03:55:00
10:15 PM,32.5,31.1,94,29.76,5.0,NW,15.0,-,N/A,Snow,Light Snow,310,2013-02-28 04:15:00
10:35 PM,32.4,31.1,95,29.76,5.0,NW,12.7,-,N/A,Snow,Light Snow,310,2013-02-28 04:35:00
10:55 PM,32.5,31.1,94,29.76,7.0,NW,16.1,19.6,N/A,Snow,Light Snow,310,2013-02-28 04:55:00
11:15 PM,32.5,31.1,94,29.75,7.0,NW,15.0,-,N/A,Snow,Light Snow,310,2013-02-28 05:15:00
11:35 PM,32.5,30.9,94,29.76,10.0,NW,16.1,-,N/A,,Overcast,310,2013-02-28 05:35:00
11:55 PM,32.0,30.2,93,29.76,10.0,WNW,13.8,19.6,N/A,,Overcast,300,2013-02-28 05:55:00